This is the latest recevied weather packets stored in our database for station/object OE8NDR-11. If no packets are shown the sender has not sent any weather packets the latest 1 day(s).
| Time | Temp. | Humidity | Pressure | Rain* | Wind** | Luminosity | Snow |
|---|---|---|---|---|---|---|---|
| 1778100188 | 16.11° C | 82% | 1017.3 hPa | 0 mm | - | - | - |
| 1778099588 | 16.11° C | 82% | 1017.4 hPa | 0 mm | - | - | - |
| 1778099288 | 16.11° C | 82% | 1017.3 hPa | 0 mm | - | - | - |
| 1778098988 | 16.11° C | 82% | 1017.4 hPa | 0 mm | - | - | - |
| 1778098688 | 16.11° C | 82% | 1017.4 hPa | 0 mm | - | - | - |
| 1778098388 | 16.11° C | 83% | 1017.3 hPa | 0 mm | - | - | - |
| 1778097788 | 16.11° C | 83% | 1017.4 hPa | 0 mm | - | - | - |
| 1778097488 | 16.11° C | 83% | 1017.4 hPa | 0 mm | - | - | - |
| 1778096888 | 16.11° C | 83% | 1017.4 hPa | 0 mm | - | - | - |
| 1778096288 | 16.67° C | 83% | 1017.4 hPa | 0 mm | - | - | - |
| 1778095688 | 16.67° C | 82% | 1017.4 hPa | 0 mm | - | - | - |
| 1778095088 | 16.67° C | 81% | 1017.4 hPa | 0 mm | - | - | - |
| 1778094488 | 16.67° C | 80% | 1017.4 hPa | 0 mm | - | - | - |
| 1778094188 | 16.67° C | 80% | 1017.3 hPa | 0 mm | - | - | - |
| 1778093888 | 17.22° C | 80% | 1017.3 hPa | 0 mm | - | - | - |
| 1778093588 | 17.22° C | 80% | 1017.2 hPa | 0 mm | - | - | - |
| 1778090588 | 17.78° C | 77% | 1016.8 hPa | 0 mm | - | - | - |
| 1778074989 | 17.22° C | 76% | 1017.5 hPa | 0.25 mm | - | - | - |
| 1778073489 | 17.78° C | 79% | 1017.5 hPa | 0.51 mm | - | - | - |
| 1778073189 | 17.22° C | 78% | 1017.5 hPa | 0.51 mm | - | - | - |
| 1778072889 | 17.22° C | 78% | 1017.5 hPa | 0.51 mm | - | - | - |
| 1778072589 | 17.22° C | 79% | 1017.6 hPa | 0.51 mm | - | - | - |
| 1778072289 | 17.22° C | 77% | 1017.7 hPa | 0.51 mm | - | - | - |
| 1778071989 | 17.22° C | 79% | 1017.5 hPa | 0.51 mm | - | - | - |
| 1778071689 | 17.78° C | 78% | 1017.7 hPa | 0.51 mm | - | - | - |
* Rain latest hour (hover to see other rain measurements)
** Current wind speed in m/s (hover to see current wind gust speed)